MST,Max TemperatureF,Mean TemperatureF,Min TemperatureF,Max Dew PointF,MeanDew PointF,Min DewpointF,Max Humidity, Mean Humidity, Min Humidity, Max Sea Level PressureIn, Mean Sea Level PressureIn, Min Sea Level PressureIn, Max VisibilityMiles, Mean VisibilityMiles, Min VisibilityMiles, Max Wind SpeedMPH, Mean Wind SpeedMPH, Max Gust SpeedMPH,PrecipitationIn, CloudCover, Events, WindDirDegrees
2012-11-1,63,53,43,37,30,19,70,45,20,30.00,29.89,29.74,10,10,10,24,10,29,T,4,,215
2012-11-2,62,50,37,34,29,27,70,50,29,30.12,30.07,30.01,10,10,10,14,7,16,0.00,0,,183
2012-11-3,64,47,30,33,29,24,78,53,27,30.21,30.15,30.05,10,10,8,13,7,14,T,0,,172
2012-11-4,66,56,45,34,30,27,56,42,27,30.36,30.28,30.17,10,10,8,15,10,20,0.00,1,,220
2012-11-5,68,57,45,41,37,31,61,49,37,30.38,30.30,30.23,10,10,8,17,11,21,0.00,0,,214
2012-11-6,71,56,40,40,35,28,79,53,27,30.27,30.13,29.96,10,10,10,17,9,23,0.00,0,,132
2012-11-7,70,56,42,35,29,25,70,45,20,29.98,29.88,29.78,10,10,8,16,9,20,0.00,0,,231
2012-11-8,65,51,36,37,32,23,89,55,20,29.76,29.61,29.46,10,9,2,35,8,43,0.08,6,Snow,209
2012-11-9,40,34,28,31,28,22,89,74,59,29.73,29.68,29.56,10,9,9,16,7,20,T,6,Snow,239
2012-11-10,39,31,23,23,18,16,81,61,40,30.06,29.87,29.72,9,9,9,25,15,32,T,1,,232
2012-11-11,39,30,21,17,15,14,77,57,37,30.44,30.29,30.08,9,9,9,22,14,28,0.00,2,,221
2012-11-12,43,34,25,29,21,13,82,56,30,30.45,30.39,30.34,10,9,8,15,6,18,T,6,,85
2012-11-13,51,40,28,30,28,25,85,62,39,30.36,30.28,30.19,10,10,7,14,4,18,0.00,6,,69
2012-11-14,45,40,34,40,36,27,92,78,64,30.31,30.24,30.15,10,6,0,8,4,10,0.05,8,Fog-Rain,284
2012-11-15,52,40,27,36,33,24,92,71,50,30.32,30.25,30.08,10,6,0,18,8,22,0.00,4,Fog,65
2012-11-16,54,42,30,35,32,28,85,66,46,30.06,30.01,29.96,10,10,9,14,5,17,T,5,Rain,99
2012-11-17,62,50,37,38,34,31,70,53,36,29.94,29.83,29.71,10,10,10,29,12,38,T,5,Rain,162
2012-11-18,54,45,35,39,35,30,85,68,50,30.09,29.96,29.72,10,9,1,26,8,36,0.22,7,Rain-Snow,193
2012-11-19,58,48,37,40,37,34,86,67,47,30.14,30.09,30.04,10,10,10,18,8,23,T,6,Rain,165
2012-11-20,58,53,47,42,36,31,82,63,43,30.05,29.94,29.79,10,10,9,24,11,31,0.10,5,Rain,141
2012-11-21,60,48,36,38,32,27,70,53,35,30.19,29.92,29.74,10,10,9,29,17,36,0.02,6,Rain,212
2012-11-22,46,37,28,26,23,21,78,60,41,30.51,30.40,30.20,10,10,10,14,7,17,0.00,0,,181
2012-11-23,50,38,25,31,25,21,81,64,46,30.49,30.39,30.23,10,10,10,12,6,15,0.00,0,,89
2012-11-24,58,45,32,29,25,21,72,51,30,30.23,30.12,29.96,10,10,10,15,8,17,0.00,1,,210
2012-11-25,43,38,33,37,33,26,92,73,53,30.19,30.06,29.93,10,9,0,24,11,29,0.09,7,Fog-Rain,230
2012-11-26,42,33,23,30,26,19,84,70,55,30.29,30.24,30.20,10,10,8,12,6,14,0.00,2,,88
2012-11-27,50,36,22,33,27,19,88,71,54,30.27,30.21,30.15,10,10,6,12,6,14,0.00,0,,91
2012-11-28,60,45,29,35,27,24,85,56,26,30.14,30.00,29.86,10,10,9,22,7,28,T,2,Rain,122
2012-11-29,57,46,35,35,31,29,76,57,38,30.01,29.92,29.79,10,10,10,22,11,29,0.00,2,,148
2012-11-30,59,49,39,43,38,33,89,65,40,29.89,29.77,29.65,10,8,2,29,13,36,0.40,7,Rain,165